Regional Weather Roundup
Issued by NWS

Home | Current Version | Previous Version | Graphics & Text | Print | Product List | Glossary Off
Versions: 1 2 3 4 5 6 7 8 9 10 11 12 13 14 15 16 17 18 19 20 21 22 23 24 25 26 27 28 29 30 31 32 33 34 35 36 37 38 39 40 41 42 43 44 45 46 47 48 49 50

227
ASUS43 KMPX 222010
RWRMN
WEATHER ROUNDUP FOR MINNESOTA
NATIONAL WEATHER SERVICE TWIN CITIES/CHANHASSEN MN
300 PM CDT WED MAR 22 2017


NOTE: "FAIR" INDICATES FEW OR NO CLOUDS BELOW 12,000 FEET WITH NO
SIGNIFICANT WEATHER AND/OR OBSTRUCTIONS TO VISIBILITY. N/A MEANS
CURRENT SKY AND/OR WEATHER CONDITIONS ARE NOT AVAILABLE.

MNZ060>063-068>070-222100-
   Twin Cities Metro

CITY           SKY/WX    TMP DP  RH WIND       PRES   REMARKS
TWIN CITIES    CLOUDY    37   9  31 S13       30.45F
ST PAUL        SUNNY     38  11  32 SE12      30.48F
CRYSTAL        CLOUDY    37   8  30 S9        30.44F
BLAINE         PTSUNNY   39  10  30 SE12G17   30.44F
LAKEVILLE      CLOUDY    36  18  48 SE12      30.44F
EDEN PRAIRIE   CLOUDY    39  13  34 SE12G17   30.43F
SOUTH ST PAUL  SUNNY     38  10  32 SE8       30.46F
LAKE ELMO      FAIR      37  10  32 S9G16     30.47F
$$
MNZ001>005-007-008-013>017-022>024-027-028-222100-
   Northwest Minnesota

CITY           SKY/WX    TMP DP  RH WIND       PRES   REMARKS
BEMIDJI        CLOUDY    32   8  35 SE14      30.33F WCI  22
HALLOCK        CLOUDY    30  16  55 S21       30.26F WCI  17
ROSEAU         CLOUDY    32  10  40 SE13      30.31F WCI  22
WARROAD        CLOUDY    30   9  40 SE16      30.32F WCI  19
THIEF RVR FALL   N/A    N/A N/A N/A MISG        N/A
CROOKSTON      CLOUDY    34  10  37 S21G26    30.28F WCI  22
FOSSTON        CLOUDY    30  10  43 SE15      30.29F WCI  19
DETROIT LAKES  MOSUNNY   32  12  43 S18       30.30F WCI  20
MOORHEAD       CLOUDY    30  12  47 SE21G28   30.29F WCI  17
PARK RAPIDS    CLOUDY    34   7  32 SE20      30.32F WCI  23
MAHNOMEN       CLOUDY    32  10  39 SE13G20   30.28F WCI  22
$$
MNZ006-009>011-018-025>026-222100-
   North Central Minnesota

CITY           SKY/WX    TMP DP  RH WIND       PRES   REMARKS
BAUDETTE       CLOUDY    35   6  29 SE17G24   30.32F WCI  25
FLAG ISLAND    CLOUDY    27  12  54 S16       30.33F WCI  14
INTL FALLS     CLOUDY    31   4  31 SE13      30.37F WCI  21
WASKISH        CLOUDY    34   9  35 S10G18    30.34F WCI  26
BIG FORK       CLOUDY    34   9  35 S12       30.37F WCI  25
LONGVILLE      CLOUDY    32   7  34 S10G17    30.37F WCI  24
GRAND RAPIDS   MOSUNNY   31   8  38 S14       30.39F WCI  21
CRANE LAKE     SUNNY     30  -2  24 S3        30.42F
ORR            CLOUDY    32   1  27 CALM      30.36F
COOK           CLOUDY    32   7  34 S9        30.40F WCI  24
WALKER         CLOUDY    31   5  33 SE10G20   30.34F WCI  23
$$
MNZ012-019>021-037-222100-
   Northeast Minnesota

CITY           SKY/WX    TMP DP  RH WIND       PRES   REMARKS
DULUTH         CLOUDY    32   8  36 S9        30.43F WCI  24
ELY            SUNNY     34   3  27 S6        30.40F WCI  29
HIBBING        CLOUDY    31   4  31 SE9G18    30.40F WCI  23
EVELETH        CLOUDY    34  -4  20 S12G17    30.41F WCI  25
DULUTH HARBOR  CLOUDY    30  19  64 NE10      30.50F WCI  21
TWO HARBORS    MOSUNNY   34  14  44 E5        30.45F WCI  30
SILVER BAY     CLOUDY    28  12  50 SE5       30.46F WCI  23
GRAND MARAIS     N/A     26  12  55 SW5       30.54F WCI  20
G MARAIS ARPRT CLOUDY    21   7  53 SE6       30.45F WCI  14
$$
MNZ029>031-032-039>041-046>048-054>057-064-222100-
   West Central Minnesota

CITY           SKY/WX    TMP DP  RH WIND       PRES   REMARKS
FERGUS FALLS   CLOUDY    30  12  47 SE21      30.34F WCI  17
WHEATON        FLURRIES  30  18  59 SE25G32   30.31F WCI  16
MORRIS         CLOUDY    34  18  51 SE25      30.31F WCI  21
ALEXANDRIA     CLOUDY    32  10  40 SE22G28   30.34F WCI  19
ELBOW LAKE     CLOUDY    31  12  45 E21G29    30.31F WCI  19
WADENA         PTSUNNY   30   9  40 SE20G25   30.33F WCI  18
GLENWOOD       MOSUNNY   34  14  44 SE21      30.34F WCI  22
APPLETON       CLOUDY    34  19  55 SE17G26   30.33F WCI  23
BENSON         CLOUDY    37  14  38 S20G25    30.36F
ORTONVILLE     LGT SNOW  30  21  69 SE14G23   30.30F WCI  20
MADISON        FLURRIES  36  25  64 SE20      30.32F
WILLMAR        FAIR      36  21  55 SE18      30.38F
$$
MNZ033>034-036-042>043-049>051-058-059-222100-
   Central Minnesota

CITY           SKY/WX    TMP DP  RH WIND       PRES   REMARKS
ST CLOUD       CLOUDY    35  10  35 SE15      30.41F WCI  25
SAUK CENTRE    CLOUDY    32  13  45 SE17      30.37F WCI  21
PAYNESVILLE      N/A     33  15  48 SE15      30.39F WCI  22
AITKIN         MOSUNNY   37   0  20 S10       30.39F
PINE RIVER     MOSUNNY   34  10  37 S17G23    30.39F WCI  23
BRAINERD       MOSUNNY   37   5  26 S16G22    30.39F
STAPLES        PTSUNNY   34   5  29 S12       30.36F WCI  25
LONG PRAIRIE   CLOUDY    34  14  44 SE17G23   30.38F WCI  23
LITTLE FALLS   CLOUDY    34   5  29 S15       30.39F WCI  24
LITCHFIELD     CLOUDY    36  18  48 SE9       30.40F
BUFFALO        CLOUDY    35   9  33 SE7       30.44F WCI  29
MAPLE LAKE     CLOUDY    36  13  39 S9        30.44F
HUTCHINSON     CLOUDY    36  21  55 SE12      30.42F
$$
MNZ037-044-045-052-053-222100-
   East Central Minnesota

CITY           SKY/WX    TMP DP  RH WIND       PRES   REMARKS
PRINCETON      MOSUNNY   39   5  24 SE10G16   30.43F
MORA           SUNNY     36   9  32 SE9       30.45F
CAMBRIDGE      SUNNY     39  18  41 SE8       30.42F
RUSH CITY      SUNNY     38   9  29 S12G17    30.45F
MOOSE LAKE     MOSUNNY   36   9  32 S7        30.41F
HINCKLEY       FAIR      37   9  30 S9        30.44F
CLOQUET        MOSUNNY   34   0  23 SE8       30.43F WCI  27
MCGREGOR       CLOUDY    36   7  30 SE12      30.41F
$$
MNZ071>073-080-081-089-090-097-098-222100-
   Southwest Minnesota

CITY           SKY/WX    TMP DP  RH WIND       PRES   REMARKS
MONTEVIDEO     CLOUDY    34  21  60 S15G22    30.36  WCI  24
GRANITE FALLS  CLOUDY    36  24  62 SE21      30.37F
CANBY          LGT SNOW  33  25  73 S17G26    30.32F WCI  22
MARSHALL       LGT RAIN  34  22  61 S20G28    30.33F WCI  23
REDWOOD FALLS  CLOUDY    35  21  56 SE20      30.38F WCI  24
OLIVIA         MOSUNNY   34  23  64 SE18      30.37F WCI  23
PIPESTONE      CLOUDY    30  21  69 S16G24    30.27F WCI  19
WINDOM         MOSUNNY   36  23  60 SE18      30.35F
WORTHINGTON    FLURRIES  31  26  82 SE17      30.33F WCI  19
JACKSON        CLOUDY    34  23  64 SE16      30.36F WCI  23
TRACY          CLOUDY    35  25  67 S16       30.34F WCI  25
SLAYTON        LGT SNOW  30  27  90 SE17G23   30.33F WCI  18
$$
MNZ065>067-074>077-082>085-091>093-222100-
   South Central Minnesota

CITY           SKY/WX    TMP DP  RH WIND       PRES   REMARKS
MANKATO        CLOUDY    36  20  52 S13       30.43F
NEW ULM        CLOUDY    36  19  51 S15       30.40F
ST JAMES       CLOUDY    36  25  64 SE16      30.41F
FAIRMONT       CLOUDY    35  22  58 S20       30.39F WCI  24
GLENCOE        CLOUDY    36  22  56 SE6       30.42F
FARIBAULT      CLOUDY    36  18  48 SE13G18   30.44F
OWATONNA       CLOUDY    36  16  44 SE10G17   30.43F
WASECA         CLOUDY    34  21  60 SE9       30.44F WCI  26
ALBERT LEA     CLOUDY    36  19  51 S14       30.41F
$$
MNZ078>079-086>088-094>096-222100-
   Southeast Minnesota

CITY           SKY/WX    TMP DP  RH WIND       PRES   REMARKS
ROCHESTER      MOSUNNY   36  13  38 SE8       30.45F
RED WING       SUNNY     39   7  26 SE5       30.47F
STANTON        SUNNY     39  14  36 SE8G16    30.44F
DODGE CENTER   MOSUNNY   36  16  44 SE14      30.44F
WINONA         SUNNY     37  10  32 E10       30.50F
AUSTIN         CLOUDY    36  14  41 S9G18     30.44F
PRESTON        MOSUNNY   36   6  29 SE9G17    30.46F
$$
ABBREVIATIONS USED IN REMARKS
   TC - TEMPERATURES IN CELSIUS
  WCI - WIND CHILL INDEX
   HX - HEAT INDEX
  VSB - VISIBILITY
$$




USA.gov is the U.S. government's official web portal to all federal, state and local government web resources and services.